sat.trackr.live / text

‹ back to catalog

KUIPER-00496

NORAD 69597 · 2026-140F

PAYLOAD ACTIVE UNKNOWN

§ Identity

Operator
Country
US
Launch date
2026-06-17
Launch site
FRGUI
Launch vehicle
Mass (kg)
RCS (m²)

External: N2YO · Heavens-Above · Gunter

§ Orbital elements

Epoch: 2026-09-20T04:00:03.000096Z

Period
96.29 min
Inclination
51.8960°
Eccentricity
0.0005639
Mean motion
14.95466585 rev/d
Perigee alt
577.0 km
Apogee alt
584.8 km
Semi-major
6,959.1 km
B*
-3.1532e-3
RAAN
304.9666°
Arg perigee
280.6215°
Mean anomaly
262.2801°
Rev number
434

§ Raw data

KUIPER-004961 69597U 26140F   26263.16670139 -.00035349  00000+0 -31532-2 0  99922 69597  51.8960 304.9666 0005639 280.6215 262.2801 14.95466585  4343

JSON: /api/v1/satellites/69597 · /tle

For live sub-satellite position, see the globe view (requires WebGL).

§ Visibility from observer

Set your observer location to see the next 7 days of passes ≥ 10°. The values pass through the URL so the page stays shareable.

No JS? Fill the form by hand. The geolocation button needs JavaScript.